Weather History for Three Rivers, MI

Change the Weather History Date:

Monday, January 15, 2007

  Actual Average Record
Temperature  
Mean Temperature 28 °F -  
Max Temperature 33 °F 28 °F 58 °F (1953)
Min Temperature 24 °F 13 °F -18 °F (1979)
Degree Days  
Heating Degree Days 36    
Moisture  
Dew Point 29 °F    
Average Humidity 96    
Maximum Humidity 100    
Minimum Humidity 86    
Precipitation  
Precipitation 0.00 in - - ()
Sea Level Pressure  
Sea Level Pressure 29.95 in    
Wind  
Wind Speed 2 mph (NNW)    
Max Wind Speed 7 mph    
Max Gust Speed -    
Visibility 7 miles    
Events Snow    
Averages and records for this station are not official NWS values.
T = Trace of Precipitation, MM = Missing Value Source: NWS Daily Summary

Daily Weather History Graph

Daily Weather History Graph

Search for Another Location

Airport:

Trip Planner

Search our weather history database for the weather conditions in past years. The results will help you decide how hot, cold, wet, or windy it might be!

Date:

Astronomy

Jan. 15, 2007 Rise Set
Actual Time 8:07 AM EST 5:35 PM EST
Civil Twilight 7:37 AM EST 6:06 PM EST
Nautical Twilight 7:02 AM EST 6:41 PM EST
Astronomical Twilight 6:29 AM EST 7:14 PM EST
Moon 5:15 AM EST (1/15) 1:54 PM EST (1/15)
Length of Visible Light 10h 29m
Length of Day
9h 27m
Waning Crescent, 14% of the Moon is Illuminated
Jan 15
Waning Crescent
Jan 18
New
Jan 25
First Quarter
Feb 2
Full
Feb 10
Last Quarter

Hourly Weather History & Observations

Time (EST) Temp. Windchill Dew Point Humidity Pressure Visibility Wind Dir Wind Speed Gust Speed Precip Events Conditions
12:16 AM 32.0 °F 25.6 °F 32.0 °F 100% 30.01 in 4.0 mi ENE 6.9 mph - N/A   Overcast
12:36 AM 32.0 °F 27.5 °F 32.0 °F 100% 30.00 in 7.0 mi East 4.6 mph - N/A   Overcast
12:56 AM 32.0 °F 27.5 °F 32.0 °F 100% 29.97 in 5.0 mi ENE 4.6 mph - N/A   Overcast
1:16 AM 32.0 °F 26.4 °F 32.0 °F 100% 29.94 in 5.0 mi East 5.8 mph - N/A   Overcast
1:36 AM 32.0 °F 27.5 °F 32.0 °F 100% 29.92 in 7.0 mi East 4.6 mph - N/A   Overcast
1:56 AM 32.0 °F - 32.0 °F 100% 29.92 in 5.0 mi Calm Calm - N/A   Overcast
2:16 AM 32.0 °F - 32.0 °F 100% 29.91 in 5.0 mi Calm Calm - N/A   Overcast
2:36 AM 32.0 °F - 32.0 °F 100% 29.90 in 5.0 mi Calm Calm - N/A   Overcast
2:56 AM 33.8 °F - 32.0 °F 93% 29.89 in 4.0 mi Calm Calm - N/A   Overcast
3:16 AM 32.0 °F - 32.0 °F 100% 29.88 in 3.0 mi Calm Calm - N/A Snow Light Snow
3:36 AM 32.0 °F - 32.0 °F 100% 29.88 in 3.0 mi Calm Calm - N/A Snow Light Snow
3:57 AM 32.0 °F - 32.0 °F 100% 29.87 in 3.0 mi Calm Calm - N/A Snow Light Snow
4:16 AM 32.0 °F - 32.0 °F 100% 29.86 in 3.0 mi Calm Calm - N/A Snow Light Snow
4:36 AM 32.0 °F - 32.0 °F 100% 29.85 in 4.0 mi Calm Calm - N/A Snow Snow
4:56 AM 32.0 °F - 32.0 °F 100% 29.84 in 4.0 mi Calm Calm - N/A Snow Light Snow
5:17 AM 32.0 °F - 32.0 °F 100% 29.83 in 5.0 mi Calm Calm - N/A   Overcast
5:36 AM 33.8 °F - 32.0 °F 93% 29.85 in 10.0 mi Calm Calm - N/A   Overcast
5:56 AM 33.8 °F - 32.0 °F 93% 29.86 in 10.0 mi Calm Calm - N/A   Overcast
6:16 AM 33.8 °F - 32.0 °F 93% 29.85 in 10.0 mi Calm Calm - N/A   Overcast
6:36 AM 33.8 °F - 32.0 °F 93% 29.84 in 5.0 mi Calm Calm - N/A   Overcast
6:57 AM 32.0 °F - 32.0 °F 100% 29.84 in 7.0 mi Calm Calm - N/A   Overcast
7:16 AM 32.0 °F - 32.0 °F 100% 29.85 in 7.0 mi Calm Calm - N/A   Overcast
7:36 AM 32.0 °F - 32.0 °F 100% 29.85 in 5.0 mi Calm Calm - N/A   Overcast
7:57 AM 32.0 °F - 32.0 °F 100% 29.84 in 4.0 mi Calm Calm - N/A   Overcast
8:16 AM 32.0 °F - 32.0 °F 100% 29.83 in 4.0 mi Calm Calm - N/A   Overcast
8:36 AM 32.0 °F - 32.0 °F 100% 29.85 in 4.0 mi Calm Calm - N/A   Overcast
6:36 PM 28.4 °F 24.6 °F 28.4 °F 100% 29.99 in - WNW 3.5 mph - N/A   Unknown
7:17 PM 28.4 °F - 26.6 °F 93% 30.01 in 10.0 mi Calm Calm - N/A   Overcast
7:36 PM 28.4 °F 24.6 °F 26.6 °F 93% 30.02 in 7.0 mi NW 3.5 mph - N/A Snow Light Snow
7:56 PM 28.4 °F - 26.6 °F 93% 30.02 in 7.0 mi Calm Calm - N/A Snow Light Snow
8:16 PM 28.4 °F 24.6 °F 26.6 °F 93% 30.03 in 7.0 mi NW 3.5 mph - N/A Snow Light Snow
8:36 PM 26.6 °F - 26.6 °F 100% 30.04 in 7.0 mi Calm Calm - N/A Snow Light Snow
8:57 PM 26.6 °F 22.6 °F 24.8 °F 93% 30.05 in 10.0 mi WNW 3.5 mph - N/A   Overcast
9:16 PM 26.6 °F 22.6 °F 24.8 °F 93% 30.05 in 10.0 mi NW 3.5 mph - N/A   Overcast
9:36 PM 26.6 °F 22.6 °F 24.8 °F 93% 30.06 in 10.0 mi NW 3.5 mph - N/A   Mostly Cloudy
9:56 PM 26.6 °F 22.6 °F 24.8 °F 93% 30.07 in 10.0 mi NW 3.5 mph - N/A   Mostly Cloudy
10:16 PM 26.6 °F 22.6 °F 23.0 °F 86% 30.08 in 10.0 mi NW 3.5 mph - N/A   Overcast
10:36 PM 26.6 °F 22.6 °F 23.0 °F 86% 30.09 in 10.0 mi NNW 3.5 mph - N/A   Overcast
10:56 PM 26.6 °F - 23.0 °F 86% 30.10 in 10.0 mi Calm Calm - N/A   Overcast
11:16 PM 26.6 °F - 23.0 °F 86% 30.11 in 10.0 mi Calm Calm - N/A   Overcast
11:37 PM 24.8 °F 20.5 °F 23.0 °F 93% 30.12 in 10.0 mi NNW 3.5 mph - N/A   Overcast
11:56 PM 24.8 °F - 23.0 °F 93% 30.12 in 10.0 mi Calm Calm - N/A   Overcast